| time (UTC) | temp F | wind direction | speed MPH | gust MPH | rain 1hr in | rain 24hr in | rain mn in | humidity % | barometer mb |
| 20260509135455 | 61 | 110 | 4.0 | 7.0 | 0.00 | 0.00 | 0.00 | 56 | 1019.5 |
| 20260509135211 | 62 | 121 | 3.0 | 5.0 | 0.00 | 0.00 | 0.00 | 57 | 1019.6 |
| 20260509134815 | 62 | 70 | 2.0 | 3.0 | 0.00 | 0.00 | 0.00 | 57 | 1019.5 |
| 20260509134638 | 61 | 72 | 3.0 | 6.0 | 0.00 | 0.00 | 0.00 | 58 | 1019.6 |
| 20260509134255 | 61 | 94 | 2.0 | 5.0 | 0.00 | 0.00 | 0.00 | 57 | 1019.6 |
| 20260509133915 | 61 | 87 | 4.0 | 8.0 | 0.00 | 0.00 | 0.00 | 56 | 1019.7 |
| 20260509133738 | 61 | 67 | 2.0 | 6.0 | 0.00 | 0.00 | 0.00 | 56 | 1019.7 |
| 20260509133315 | 61 | 84 | 2.0 | 4.0 | 0.00 | 0.00 | 0.00 | 57 | 1019.8 |
| 20260509133015 | 61 | 74 | 3.0 | 6.0 | 0.00 | 0.00 | 0.00 | 57 | 1019.7 |
| 20260509132715 | 61 | 46 | 2.0 | 6.0 | 0.00 | 0.00 | 0.00 | 57 | 1019.8 |
| 20260509132418 | 61 | 60 | 1.0 | 3.0 | 0.00 | 0.00 | 0.00 | 57 | 1019.8 |
| 20260509132115 | 61 | 71 | 2.0 | 6.0 | 0.00 | 0.00 | 0.00 | 57 | 1019.8 |
| 20260509131815 | 61 | 80 | 3.0 | 6.0 | 0.00 | 0.00 | 0.00 | 56 | 1019.8 |
| 20260509131555 | 61 | 86 | 5.0 | 8.0 | 0.00 | 0.00 | 0.00 | 58 | 1019.8 |
| 20260509131215 | 61 | 32 | 2.0 | 5.0 | 0.00 | 0.00 | 0.00 | 58 | 1019.8 |
| 20260509130915 | 61 | 77 | 2.0 | 4.0 | 0.00 | 0.00 | 0.00 | 58 | 1019.9 |
| 20260509130618 | 61 | 114 | 1.0 | 2.0 | 0.00 | 0.00 | 0.00 | 58 | 1019.8 |
| 20260509130355 | 61 | 113 | 2.0 | 4.0 | 0.00 | 0.00 | 0.00 | 56 | 1019.9 |
| 20260509130015 | 61 | 81 | 2.0 | 4.0 | 0.00 | 0.00 | 0.00 | 58 | 1019.9 |
| 20260509125755 | 61 | 17 | 0.0 | 2.0 | 0.00 | 0.00 | 0.00 | 59 | 1019.9 |
| 20260509125418 | 61 | 13 | 1.0 | 4.0 | 0.00 | 0.00 | 0.00 | 58 | 1019.9 |
| 20260509125115 | 61 | 24 | 2.0 | 6.0 | 0.00 | 0.00 | 0.00 | 58 | 1019.9 |
| 20260509124815 | 61 | 88 | 1.0 | 3.0 | 0.00 | 0.00 | 0.00 | 57 | 1020.0 |
| 20260509124555 | 62 | 32 | 3.0 | 7.0 | 0.00 | 0.00 | 0.00 | 57 | 1020.0 |
| 20260509124215 | 62 | 13 | 2.0 | 6.0 | 0.00 | 0.00 | 0.00 | 59 | 1020.0 |
| 20260509123915 | 62 | 60 | 1.0 | 3.0 | 0.00 | 0.00 | 0.00 | 58 | 1020.0 |
| 20260509123615 | 62 | 51 | 1.0 | 2.0 | 0.00 | 0.00 | 0.00 | 59 | 1020.0 |
| 20260509123315 | 62 | 16 | 2.0 | 5.0 | 0.00 | 0.00 | 0.00 | 59 | 1020.0 |
| 20260509123015 | 62 | 20 | 4.0 | 7.0 | 0.00 | 0.00 | 0.00 | 59 | 1020.0 |
| 20260509122715 | 62 | 26 | 3.0 | 7.0 | 0.00 | 0.00 | 0.00 | 60 | 1020.1 |
| 20260509122415 | 62 | 36 | 3.0 | 8.0 | 0.00 | 0.00 | 0.00 | 59 | 1020.1 |
| 20260509122115 | 61 | 43 | 2.0 | 7.0 | 0.00 | 0.00 | 0.00 | 56 | 1020.0 |
| 20260509121815 | 62 | 276 | 0.0 | 2.0 | 0.00 | 0.00 | 0.00 | 53 | 1020.0 |
| 20260509121515 | 64 | 329 | 2.0 | 4.0 | 0.00 | 0.00 | 0.00 | 54 | 1020.1 |
| 20260509121215 | 64 | 7 | 5.0 | 10.0 | 0.00 | 0.00 | 0.00 | 55 | 1020.1 |
| 20260509120915 | 64 | 26 | 3.0 | 7.0 | 0.00 | 0.00 | 0.00 | 54 | 1020.1 |
| 20260509120615 | 64 | 115 | 2.0 | 3.0 | 0.00 | 0.00 | 0.00 | 55 | 1020.1 |
| 20260509120315 | 64 | 108 | 2.0 | 4.0 | 0.00 | 0.00 | 0.00 | 55 | 1020.1 |
| 20260509120015 | 64 | 60 | 4.0 | 8.0 | 0.00 | 0.00 | 0.00 | 55 | 1020.2 |
| 20260509115715 | 63 | 35 | 4.0 | 8.0 | 0.00 | 0.00 | 0.00 | 57 | 1020.2 |
| 20260509115455 | 63 | 32 | 4.0 | 7.0 | 0.00 | 0.00 | 0.00 | 59 | 1020.2 |
| 20260509115158 | 62 | 9 | 5.0 | 9.0 | 0.00 | 0.00 | 0.00 | 58 | 1020.2 |
| 20260509114815 | 63 | 25 | 2.0 | 6.0 | 0.00 | 0.00 | 0.00 | 57 | 1020.2 |
| 20260509114515 | 63 | 41 | 4.0 | 8.0 | 0.00 | 0.00 | 0.00 | 58 | 1020.3 |
| 20260509114215 | 62 | 53 | 2.0 | 5.0 | 0.00 | 0.00 | 0.00 | 59 | 1020.2 |
| 20260509113915 | 62 | 50 | 4.0 | 6.0 | 0.00 | 0.00 | 0.00 | 57 | 1020.2 |
| 20260509113618 | 62 | 37 | 5.0 | 8.0 | 0.00 | 0.00 | 0.00 | 59 | 1020.3 |
| 20260509113315 | 62 | 19 | 4.0 | 8.0 | 0.00 | 0.00 | 0.00 | 59 | 1020.3 |
| 20260509113015 | 61 | 58 | 3.0 | 8.0 | 0.00 | 0.00 | 0.00 | 57 | 1020.3 |
| 20260509112715 | 62 | 47 | 2.0 | 5.0 | 0.00 | 0.00 | 0.00 | 59 | 1020.4 |
| 20260509112415 | 62 | 33 | 4.0 | 8.0 | 0.00 | 0.00 | 0.00 | 58 | 1020.3 |
| 20260509112115 | 62 | 48 | 4.0 | 8.0 | 0.00 | 0.00 | 0.00 | 60 | 1020.3 |
| 20260509111815 | 61 | 36 | 3.0 | 5.0 | 0.00 | 0.00 | 0.00 | 58 | 1020.3 |
| 20260509111635 | 62 | 48 | 4.0 | 7.0 | 0.00 | 0.00 | 0.00 | 59 | 1020.3 |
| 20260509111255 | 61 | 44 | 4.0 | 8.0 | 0.00 | 0.00 | 0.00 | 59 | 1020.4 |
| 20260509110955 | 61 | 61 | 5.0 | 9.0 | 0.00 | 0.00 | 0.00 | 58 | 1020.4 |
| 20260509110615 | 61 | 40 | 6.0 | 11.0 | 0.00 | 0.00 | 0.00 | 60 | 1020.4 |
| 20260509110355 | 61 | 40 | 4.0 | 9.0 | 0.00 | 0.00 | 0.00 | 61 | 1020.5 |
| 20260509110015 | 61 | 33 | 2.0 | 5.0 | 0.00 | 0.00 | 0.00 | 61 | 1020.5 |
| 20260509105715 | 60 | 26 | 3.0 | 6.0 | 0.00 | 0.00 | 0.00 | 61 | 1020.4 |
| 20260509105415 | 60 | 42 | 4.0 | 7.0 | 0.00 | 0.00 | 0.00 | 62 | 1020.5 |
| 20260509105155 | 60 | 41 | 4.0 | 8.0 | 0.00 | 0.00 | 0.00 | 61 | 1020.5 |
| 20260509104815 | 60 | 43 | 5.0 | 9.0 | 0.00 | 0.00 | 0.00 | 60 | 1020.5 |
| 20260509104515 | 60 | 62 | 2.0 | 5.0 | 0.00 | 0.00 | 0.00 | 62 | 1020.5 |
| 20260509104215 | 60 | 32 | 3.0 | 8.0 | 0.00 | 0.00 | 0.00 | 62 | 1020.5 |
| 20260509103918 | 60 | 36 | 5.0 | 10.0 | 0.00 | 0.00 | 0.00 | 61 | 1020.5 |
| 20260509103618 | 60 | 29 | 4.0 | 7.0 | 0.00 | 0.00 | 0.00 | 60 | 1020.5 |
| 20260509103315 | 61 | 31 | 5.0 | 9.0 | 0.00 | 0.00 | 0.00 | 60 | 1020.5 |
| 20260509103015 | 62 | 30 | 5.0 | 11.0 | 0.00 | 0.00 | 0.00 | 60 | 1020.6 |
| 20260509102715 | 62 | 35 | 3.0 | 5.0 | 0.00 | 0.00 | 0.00 | 60 | 1020.5 |
| 20260509102415 | 62 | 36 | 4.0 | 10.0 | 0.00 | 0.00 | 0.00 | 62 | 1020.6 |
| 20260509102115 | 61 | 37 | 5.0 | 10.0 | 0.00 | 0.00 | 0.00 | 61 | 1020.6 |
| 20260509101815 | 61 | 40 | 5.0 | 9.0 | 0.00 | 0.00 | 0.00 | 61 | 1020.6 |
| 20260509101555 | 61 | 37 | 5.0 | 10.0 | 0.00 | 0.00 | 0.00 | 60 | 1020.6 |
| 20260509101215 | 62 | 41 | 6.0 | 10.0 | 0.00 | 0.00 | 0.00 | 60 | 1020.6 |
| 20260509100915 | 62 | 43 | 5.0 | 11.0 | 0.00 | 0.00 | 0.00 | 56 | 1020.6 |
| 20260509100618 | 63 | 82 | 2.0 | 6.0 | 0.00 | 0.00 | 0.00 | 53 | 1020.6 |
| 20260509100315 | 63 | 53 | 3.0 | 7.0 | 0.00 | 0.00 | 0.00 | 54 | 1020.6 |
| 20260509100015 | 63 | 325 | 2.0 | 4.0 | 0.00 | 0.00 | 0.00 | 55 | 1020.6 |
| 20260509095731 | 63 | 287 | 2.0 | 4.0 | 0.00 | 0.00 | 0.00 | 54 | 1020.6 |
| 20260509095415 | 63 | 29 | 3.0 | 9.0 | 0.00 | 0.00 | 0.00 | 54 | 1020.6 |
| 20260509095115 | 63 | 83 | 4.0 | 7.0 | 0.00 | 0.00 | 0.00 | 55 | 1020.6 |
| 20260509094815 | 62 | 45 | 4.0 | 7.0 | 0.00 | 0.00 | 0.00 | 57 | 1020.6 |
| 20260509094515 | 62 | 21 | 3.0 | 5.0 | 0.00 | 0.00 | 0.00 | 59 | 1020.6 |
| 20260509094215 | 61 | 20 | 3.0 | 5.0 | 0.00 | 0.00 | 0.00 | 58 | 1020.6 |
| 20260509093955 | 61 | 49 | 4.0 | 8.0 | 0.00 | 0.00 | 0.00 | 59 | 1020.6 |
| 20260509093655 | 61 | 8 | 1.0 | 3.0 | 0.00 | 0.00 | 0.00 | 59 | 1020.6 |
| 20260509093315 | 61 | 42 | 2.0 | 6.0 | 0.00 | 0.00 | 0.00 | 58 | 1020.6 |
| 20260509093015 | 61 | 56 | 5.0 | 10.0 | 0.00 | 0.00 | 0.00 | 58 | 1020.6 |
| 20260509092715 | 62 | 58 | 4.0 | 8.0 | 0.00 | 0.00 | 0.00 | 59 | 1020.6 |
| 20260509092455 | 61 | 26 | 2.0 | 7.0 | 0.00 | 0.00 | 0.00 | 63 | 1020.6 |
| 20260509092238 | 60 | 296 | 1.0 | 3.0 | 0.00 | 0.00 | 0.00 | 63 | 1020.6 |
| 20260509091815 | 60 | 216 | 1.0 | 3.0 | 0.00 | 0.00 | 0.00 | 60 | 1020.5 |
| 20260509091515 | 60 | 144 | 2.0 | 4.0 | 0.00 | 0.00 | 0.00 | 61 | 1020.6 |
| 20260509091218 | 60 | 144 | 1.0 | 3.0 | 0.00 | 0.00 | 0.00 | 63 | 1020.6 |
| 20260509090915 | 60 | 233 | 1.0 | 2.0 | 0.00 | 0.00 | 0.00 | 62 | 1020.6 |
| 20260509090615 | 60 | 268 | 2.0 | 4.0 | 0.00 | 0.00 | 0.00 | 65 | 1020.6 |
| 20260509090315 | 59 | 192 | 2.0 | 3.0 | 0.00 | 0.00 | 0.00 | 65 | 1020.6 |
| 20260509090018 | 59 | 162 | 2.0 | 5.0 | 0.00 | 0.00 | 0.00 | 62 | 1020.7 |
| 20260509085715 | 59 | 84 | 2.0 | 4.0 | 0.00 | 0.00 | 0.00 | 64 | 1020.7 |
| 20260509085415 | 60 | 120 | 4.0 | 8.0 | 0.00 | 0.00 | 0.00 | 64 | 1020.7 |
| 20260509085155 | 59 | 99 | 5.0 | 8.0 | 0.00 | 0.00 | 0.00 | 65 | 1020.7 |
| 20260509084938 | 59 | 126 | 2.0 | 4.0 | 0.00 | 0.00 | 0.00 | 65 | 1020.7 |
| 20260509084515 | 59 | 105 | 1.0 | 4.0 | 0.00 | 0.00 | 0.00 | 65 | 1020.7 |
| 20260509084215 | 59 | 108 | 1.0 | 5.0 | 0.00 | 0.00 | 0.00 | 67 | 1020.8 |
| 20260509083918 | 59 | 35 | 1.0 | 3.0 | 0.00 | 0.00 | 0.00 | 66 | 1020.8 |
| 20260509083615 | 59 | 130 | 1.0 | 3.0 | 0.00 | 0.00 | 0.00 | 66 | 1020.7 |
| 20260509083315 | 59 | 124 | 2.0 | 4.0 | 0.00 | 0.00 | 0.00 | 66 | 1020.8 |
| 20260509083015 | 58 | 81 | 3.0 | 6.0 | 0.00 | 0.00 | 0.00 | 67 | 1020.8 |
| 20260509082718 | 58 | 54 | 1.0 | 4.0 | 0.00 | 0.00 | 0.00 | 66 | 1020.8 |
| 20260509082415 | 58 | 356 | 2.0 | 5.0 | 0.00 | 0.00 | 0.00 | 67 | 1020.8 |
| 20260509082115 | 58 | 30 | 4.0 | 8.0 | 0.00 | 0.00 | 0.00 | 67 | 1020.7 |
| 20260509081815 | 58 | 40 | 4.0 | 8.0 | 0.00 | 0.00 | 0.00 | 67 | 1020.7 |
| 20260509081515 | 58 | 101 | 2.0 | 5.0 | 0.00 | 0.00 | 0.00 | 67 | 1020.7 |
| 20260509081215 | 58 | 83 | 3.0 | 6.0 | 0.00 | 0.00 | 0.00 | 68 | 1020.7 |
| 20260509080955 | 57 | 51 | 2.0 | 6.0 | 0.00 | 0.00 | 0.00 | 70 | 1020.7 |
| 20260509080615 | 57 | 337 | 1.0 | 4.0 | 0.00 | 0.00 | 0.00 | 71 | 1020.7 |
| 20260509080315 | 57 | 6 | 2.0 | 5.0 | 0.00 | 0.00 | 0.00 | 71 | 1020.7 |
| 20260509080015 | 57 | 27 | 3.0 | 5.0 | 0.00 | 0.00 | 0.00 | 71 | 1020.7 |
| 20260509075755 | 57 | 17 | 1.0 | 4.0 | 0.00 | 0.00 | 0.00 | 72 | 1020.7 |
| 20260509075458 | 56 | 18 | 2.0 | 6.0 | 0.00 | 0.00 | 0.00 | 72 | 1020.8 |
| 20260509075115 | 56 | 28 | 1.0 | 4.0 | 0.00 | 0.00 | 0.00 | 72 | 1020.7 |
| 20260509074815 | 56 | 12 | 2.0 | 4.0 | 0.00 | 0.00 | 0.00 | 73 | 1020.7 |
| 20260509074516 | 56 | 3 | 2.0 | 7.0 | 0.00 | 0.00 | 0.00 | 73 | 1020.8 |
| 20260509074215 | 56 | 61 | 3.0 | 6.0 | 0.00 | 0.00 | 0.00 | 73 | 1020.8 |
| 20260509073915 | 56 | 44 | 3.0 | 6.0 | 0.00 | 0.00 | 0.00 | 72 | 1020.8 |
| 20260509073655 | 56 | 58 | 2.0 | 4.0 | 0.00 | 0.00 | 0.00 | 72 | 1020.8 |
| 20260509073315 | 56 | 17 | 1.0 | 4.0 | 0.00 | 0.00 | 0.00 | 73 | 1020.8 |
| 20260509073015 | 55 | 11 | 2.0 | 5.0 | 0.00 | 0.00 | 0.00 | 73 | 1020.7 |
| 20260509072715 | 55 | 337 | 3.0 | 6.0 | 0.00 | 0.00 | 0.00 | 74 | 1020.7 |
| 20260509072415 | 55 | 36 | 2.0 | 4.0 | 0.00 | 0.00 | 0.00 | 74 | 1020.8 |
| 20260509072155 | 55 | 44 | 1.0 | 5.0 | 0.00 | 0.00 | 0.00 | 73 | 1020.8 |
| 20260509071815 | 55 | 47 | 3.0 | 5.0 | 0.00 | 0.00 | 0.00 | 73 | 1020.8 |
| 20260509071555 | 55 | 65 | 2.0 | 5.0 | 0.00 | 0.00 | 0.00 | 74 | 1020.8 |
| 20260509071218 | 55 | 16 | 1.0 | 2.0 | 0.00 | 0.00 | 0.00 | 76 | 1020.8 |
| 20260509070915 | 54 | 6 | 2.0 | 6.0 | 0.00 | 0.00 | 0.00 | 74 | 1020.8 |
| 20260509070615 | 54 | 43 | 3.0 | 6.0 | 0.00 | 0.00 | 0.00 | 74 | 1020.7 |
| 20260509070355 | 54 | 32 | 3.0 | 7.0 | 0.00 | 0.00 | 0.00 | 75 | 1020.8 |
| 20260509070015 | 54 | 47 | 3.0 | 6.0 | 0.00 | 0.00 | 0.00 | 75 | 1020.7 |
| 20260509065715 | 54 | 41 | 3.0 | 5.0 | 0.00 | 0.00 | 0.00 | 75 | 1020.7 |
| 20260509065415 | 54 | 46 | 2.0 | 6.0 | 0.00 | 0.00 | 0.00 | 75 | 1020.7 |
| 20260509065115 | 54 | 40 | 1.0 | 3.0 | 0.00 | 0.00 | 0.00 | 75 | 1020.7 |
| 20260509064815 | 54 | 44 | 2.0 | 5.0 | 0.00 | 0.00 | 0.00 | 75 | 1020.7 |
| 20260509064515 | 54 | 56 | 3.0 | 6.0 | 0.00 | 0.00 | 0.00 | 76 | 1020.7 |
| 20260509064215 | 54 | 37 | 2.0 | 4.0 | 0.00 | 0.00 | 0.00 | 77 | 1020.7 |
| 20260509063915 | 53 | 37 | 0.0 | 1.0 | 0.00 | 0.00 | 0.00 | 77 | 1020.7 |
| 20260509063659 | 53 | 47 | 1.0 | 4.0 | 0.00 | 0.00 | 0.00 | 77 | 1020.7 |
| 20260509063315 | 53 | 55 | 1.0 | 2.0 | 0.00 | 0.00 | 0.00 | 77 | 1020.6 |
| 20260509063015 | 52 | 55 | 0.0 | 2.0 | 0.00 | 0.00 | 0.00 | 76 | 1020.6 |
| 20260509062758 | 53 | 55 | 2.0 | 3.0 | 0.00 | 0.00 | 0.00 | 78 | 1020.6 |
| 20260509062415 | 52 | 56 | 0.0 | 4.0 | 0.00 | 0.00 | 0.00 | 79 | 1020.5 |
| 20260509062115 | 52 | 36 | 0.0 | 1.0 | 0.00 | 0.00 | 0.00 | 78 | 1020.6 |
| 20260509061815 | 52 | 36 | 0.0 | 2.0 | 0.00 | 0.00 | 0.00 | 78 | 1020.6 |
| 20260509061515 | 51 | 36 | 1.0 | 3.0 | 0.00 | 0.00 | 0.00 | 78 | 1020.6 |
| 20260509061215 | 51 | 36 | 0.0 | 2.0 | 0.00 | 0.00 | 0.00 | 79 | 1020.6 |
| 20260509060915 | 50 | 36 | 0.0 | 1.0 | 0.00 | 0.00 | 0.00 | 80 | 1020.5 |
| 20260509060618 | 50 | 0.0 | 0.0 | 0.00 | 0.00 | 0.00 | 80 | 1020.6 | |
| 20260509060315 | 49 | 36 | 0.0 | 1.0 | 0.00 | 0.00 | 0.00 | 81 | 1020.5 |
| 20260509060015 | 49 | 36 | 0.0 | 1.0 | 0.00 | 0.00 | 0.00 | 82 | 1020.6 |
| 20260509055715 | 49 | 0.0 | 0.0 | 0.00 | 0.00 | 0.00 | 83 | 1020.6 | |
| 20260509055418 | 48 | 0.0 | 0.0 | 0.00 | 0.00 | 0.00 | 83 | 1020.6 | |
| 20260509055115 | 48 | 36 | 0.0 | 1.0 | 0.00 | 0.00 | 0.00 | 84 | 1020.6 |
| 20260509054815 | 48 | 36 | 0.0 | 1.0 | 0.00 | 0.00 | 0.00 | 84 | 1020.6 |
| 20260509054515 | 48 | 36 | 1.0 | 2.0 | 0.00 | 0.00 | 0.00 | 85 | 1020.6 |
| 20260509054218 | 47 | 36 | 0.0 | 1.0 | 0.00 | 0.00 | 0.00 | 85 | 1020.6 |
| 20260509053915 | 47 | 36 | 2.0 | 3.0 | 0.00 | 0.00 | 0.00 | 86 | 1020.6 |
| 20260509053615 | 47 | 36 | 1.0 | 2.0 | 0.00 | 0.00 | 0.00 | 87 | 1020.6 |
| 20260509053315 | 47 | 36 | 2.0 | 4.0 | 0.00 | 0.00 | 0.00 | 87 | 1020.6 |
| 20260509053015 | 46 | 36 | 1.0 | 3.0 | 0.00 | 0.00 | 0.00 | 88 | 1020.6 |
| 20260509052715 | 46 | 36 | 1.0 | 3.0 | 0.00 | 0.00 | 0.00 | 88 | 1020.5 |
| 20260509052415 | 46 | 36 | 1.0 | 2.0 | 0.00 | 0.00 | 0.00 | 88 | 1020.5 |
| 20260509052236 | 46 | 36 | 2.0 | 4.0 | 0.00 | 0.00 | 0.00 | 89 | 1020.6 |
| 20260509051858 | 45 | 43 | 2.0 | 4.0 | 0.00 | 0.00 | 0.00 | 89 | 1020.5 |
| 20260509051515 | 45 | 41 | 2.0 | 4.0 | 0.00 | 0.00 | 0.00 | 90 | 1020.5 |
| 20260509051215 | 45 | 42 | 2.0 | 3.0 | 0.00 | 0.00 | 0.00 | 90 | 1020.5 |
| 20260509050915 | 45 | 22 | 2.0 | 4.0 | 0.00 | 0.00 | 0.00 | 90 | 1020.5 |
| 20260509050618 | 44 | 355 | 1.0 | 2.0 | 0.00 | 0.00 | 0.00 | 90 | 1020.5 |
| 20260509050315 | 44 | 355 | 1.0 | 2.0 | 0.00 | 0.00 | 0.00 | 91 | 1020.5 |
| 20260509050015 | 44 | 355 | 1.0 | 2.0 | 0.00 | 0.00 | 0.00 | 91 | 1020.5 |
| 20260509045715 | 44 | 355 | 0.0 | 1.0 | 0.00 | 0.00 | 0.00 | 91 | 1020.4 |
| 20260509045415 | 43 | 355 | 1.0 | 3.0 | 0.00 | 0.00 | 0.00 | 91 | 1020.4 |
| 20260509045115 | 43 | 355 | 1.0 | 2.0 | 0.00 | 0.00 | 0.00 | 91 | 1020.3 |
| 20260509044815 | 43 | 354 | 1.0 | 2.0 | 0.00 | 0.00 | 0.00 | 91 | 1020.3 |
| 20260509044515 | 43 | 354 | 1.0 | 2.0 | 0.00 | 0.00 | 0.00 | 91 | 1020.3 |
| 20260509044215 | 42 | 354 | 1.0 | 2.0 | 0.00 | 0.00 | 0.00 | 91 | 1020.3 |
| 20260509043915 | 42 | 354 | 1.0 | 2.0 | 0.00 | 0.00 | 0.00 | 91 | 1020.3 |
| 20260509043655 | 42 | 354 | 1.0 | 2.0 | 0.00 | 0.00 | 0.00 | 91 | 1020.3 |
| 20260509043315 | 42 | 354 | 1.0 | 2.0 | 0.00 | 0.00 | 0.00 | 91 | 1020.3 |
| 20260509043015 | 41 | 354 | 0.0 | 1.0 | 0.00 | 0.00 | 0.00 | 91 | 1020.2 |
| 20260509042718 | 41 | 354 | 0.0 | 1.0 | 0.00 | 0.00 | 0.00 | 91 | 1020.2 |
| 20260509042418 | 41 | 354 | 1.0 | 2.0 | 0.00 | 0.00 | 0.00 | 91 | 1020.2 |
| 20260509042115 | 41 | 354 | 1.0 | 2.0 | 0.00 | 0.00 | 0.00 | 91 | 1020.2 |
| 20260509041856 | 41 | 355 | 0.0 | 1.0 | 0.00 | 0.00 | 0.00 | 91 | 1020.2 |
| 20260509041515 | 40 | 355 | 0.0 | 1.0 | 0.00 | 0.00 | 0.00 | 91 | 1020.2 |
| 20260509041258 | 40 | 355 | 0.0 | 1.0 | 0.00 | 0.00 | 0.00 | 91 | 1020.2 |
| 20260509040915 | 40 | 355 | 1.0 | 2.0 | 0.00 | 0.00 | 0.00 | 91 | 1020.2 |
| 20260509040615 | 40 | 355 | 1.0 | 2.0 | 0.00 | 0.00 | 0.00 | 91 | 1020.2 |
| 20260509040315 | 40 | 355 | 1.0 | 2.0 | 0.00 | 0.00 | 0.00 | 91 | 1020.2 |
| 20260509040015 | 40 | 0.0 | 0.0 | 0.00 | 0.00 | 0.00 | 91 | 1020.1 | |
| 20260509035734 | 40 | 355 | 0.0 | 1.0 | 0.00 | 0.00 | 0.00 | 91 | 1020.2 |
| 20260509035415 | 40 | 355 | 0.0 | 1.0 | 0.00 | 0.00 | 0.00 | 91 | 1020.1 |
| 20260509035115 | 40 | 355 | 1.0 | 2.0 | 0.00 | 0.00 | 0.00 | 91 | 1020.2 |
| 20260509034815 | 39 | 356 | 1.0 | 2.0 | 0.00 | 0.00 | 0.00 | 91 | 1020.2 |
| 20260509034515 | 39 | 357 | 0.0 | 1.0 | 0.00 | 0.00 | 0.00 | 91 | 1020.1 |
| 20260509034215 | 39 | 357 | 0.0 | 1.0 | 0.00 | 0.00 | 0.00 | 91 | 1020.1 |
| 20260509033955 | 39 | 0.0 | 0.0 | 0.00 | 0.00 | 0.00 | 91 | 1020.1 | |
| 20260509033615 | 39 | 357 | 0.0 | 1.0 | 0.00 | 0.00 | 0.00 | 91 | 1020.1 |
| 20260509033315 | 39 | 357 | 1.0 | 2.0 | 0.00 | 0.00 | 0.00 | 91 | 1020.2 |
| 20260509033015 | 39 | 356 | 1.0 | 2.0 | 0.00 | 0.00 | 0.00 | 90 | 1020.2 |
| 20260509032715 | 39 | 356 | 1.0 | 2.0 | 0.00 | 0.00 | 0.00 | 90 | 1020.1 |
| 20260509032415 | 39 | 356 | 0.0 | 1.0 | 0.00 | 0.00 | 0.00 | 90 | 1020.1 |
| 20260509032159 | 39 | 357 | 1.0 | 2.0 | 0.00 | 0.00 | 0.00 | 90 | 1020.1 |
| 20260509031815 | 40 | 357 | 1.0 | 2.0 | 0.00 | 0.00 | 0.00 | 90 | 1020.1 |
| 20260509031515 | 40 | 357 | 1.0 | 2.0 | 0.00 | 0.00 | 0.00 | 90 | 1020.1 |
| 20260509031215 | 40 | 5 | 2.0 | 2.0 | 0.00 | 0.00 | 0.00 | 90 | 1020.1 |
| 20260509030915 | 40 | 52 | 2.0 | 2.0 | 0.00 | 0.00 | 0.00 | 90 | 1020.1 |
| 20260509030615 | 40 | 52 | 1.0 | 2.0 | 0.00 | 0.00 | 0.00 | 90 | 1020.1 |
| 20260509030315 | 40 | 52 | 1.0 | 2.0 | 0.00 | 0.00 | 0.00 | 90 | 1020.1 |
| 20260509030015 | 40 | 52 | 0.0 | 1.0 | 0.00 | 0.00 | 0.00 | 90 | 1020.1 |
| 20260509025715 | 40 | 0.0 | 0.0 | 0.00 | 0.00 | 0.00 | 90 | 1020.2 | |
| 20260509025415 | 40 | 0.0 | 0.0 | 0.00 | 0.00 | 0.00 | 90 | 1020.1 | |
| 20260509025119 | 40 | 0.0 | 0.0 | 0.00 | 0.00 | 0.00 | 90 | 1020.1 | |
| 20260509024815 | 40 | 0.0 | 0.0 | 0.00 | 0.00 | 0.00 | 90 | 1020.1 | |
| 20260509024516 | 40 | 0.0 | 0.0 | 0.00 | 0.00 | 0.00 | 90 | 1020.1 | |
| 20260509024215 | 40 | 0.0 | 0.0 | 0.00 | 0.00 | 0.00 | 90 | 1020.1 | |
| 20260509023915 | 40 | 52 | 0.0 | 1.0 | 0.00 | 0.00 | 0.00 | 90 | 1020.2 |
| 20260509023659 | 40 | 52 | 1.0 | 2.0 | 0.00 | 0.00 | 0.00 | 90 | 1020.2 |
| 20260509023358 | 40 | 52 | 1.0 | 2.0 | 0.00 | 0.00 | 0.00 | 90 | 1020.1 |
| 20260509023015 | 40 | 52 | 2.0 | 2.0 | 0.00 | 0.00 | 0.00 | 90 | 1020.1 |
| 20260509022755 | 41 | 52 | 2.0 | 2.0 | 0.00 | 0.00 | 0.00 | 90 | 1020.1 |
| 20260509022415 | 41 | 52 | 1.0 | 1.0 | 0.00 | 0.00 | 0.00 | 90 | 1020.1 |
| 20260509022118 | 41 | 52 | 1.0 | 1.0 | 0.00 | 0.00 | 0.00 | 90 | 1020.1 |
| 20260509021855 | 41 | 52 | 1.0 | 2.0 | 0.00 | 0.00 | 0.00 | 90 | 1020.1 |
| 20260509021555 | 41 | 52 | 1.0 | 2.0 | 0.00 | 0.00 | 0.00 | 90 | 1020.1 |
| 20260509021215 | 41 | 52 | 1.0 | 2.0 | 0.00 | 0.00 | 0.00 | 90 | 1020.1 |
| 20260509020918 | 41 | 52 | 1.0 | 2.0 | 0.00 | 0.00 | 0.00 | 90 | 1020.1 |
| 20260509020615 | 41 | 52 | 2.0 | 2.0 | 0.00 | 0.00 | 0.00 | 90 | 1020.1 |
| 20260509020316 | 41 | 52 | 2.0 | 3.0 | 0.00 | 0.00 | 0.00 | 90 | 1020.1 |
| 20260509020015 | 41 | 52 | 2.0 | 3.0 | 0.00 | 0.00 | 0.00 | 90 | 1020.1 |
| 20260509015715 | 41 | 52 | 2.0 | 2.0 | 0.00 | 0.00 | 0.00 | 90 | 1020.2 |
| 20260509015415 | 41 | 0.0 | 0.0 | 0.00 | 0.00 | 0.00 | 90 | 1020.1 | |
| 20260509015115 | 41 | 0.0 | 0.0 | 0.00 | 0.00 | 0.00 | 90 | 1020.1 | |
| 20260509014815 | 41 | 0.0 | 0.0 | 0.00 | 0.00 | 0.00 | 90 | 1020.1 | |
| 20260509014515 | 41 | 0.0 | 0.0 | 0.00 | 0.00 | 0.00 | 90 | 1020.1 | |
| 20260509014255 | 41 | 0.0 | 0.0 | 0.00 | 0.00 | 0.00 | 90 | 1020.1 | |
| 20260509013956 | 41 | 0.0 | 0.0 | 0.00 | 0.00 | 0.00 | 90 | 1020.1 | |
| 20260509013658 | 41 | 0.0 | 0.0 | 0.00 | 0.00 | 0.00 | 90 | 1020.1 | |
| 20260509013315 | 41 | 0.0 | 0.0 | 0.00 | 0.00 | 0.00 | 90 | 1020.1 | |
| 20260509013015 | 41 | 0.0 | 0.0 | 0.00 | 0.00 | 0.00 | 90 | 1020.1 | |
| 20260509012715 | 42 | 0.0 | 0.0 | 0.00 | 0.00 | 0.00 | 90 | 1020.0 | |
| 20260509012415 | 42 | 0.0 | 0.0 | 0.00 | 0.00 | 0.00 | 90 | 1020.0 | |
| 20260509012115 | 42 | 0.0 | 0.0 | 0.00 | 0.00 | 0.00 | 90 | 1020.1 | |
| 20260509011815 | 42 | 0.0 | 0.0 | 0.00 | 0.00 | 0.00 | 90 | 1020.1 | |
| 20260509011515 | 42 | 0.0 | 0.0 | 0.00 | 0.00 | 0.00 | 89 | 1020.0 | |
| 20260509011258 | 42 | 0.0 | 0.0 | 0.00 | 0.00 | 0.00 | 89 | 1020.0 | |
| 20260509010915 | 42 | 0.0 | 0.0 | 0.00 | 0.00 | 0.00 | 89 | 1020.0 | |
| 20260509010615 | 42 | 0.0 | 0.0 | 0.00 | 0.00 | 0.00 | 89 | 1020.0 | |
| 20260509010315 | 42 | 0.0 | 0.0 | 0.00 | 0.00 | 0.00 | 89 | 1020.0 | |
| 20260509010018 | 42 | 0.0 | 0.0 | 0.00 | 0.00 | 0.00 | 89 | 1020.0 | |
| 20260509005717 | 42 | 0.0 | 0.0 | 0.00 | 0.00 | 0.00 | 89 | 1020.0 | |
| 20260509005415 | 42 | 0.0 | 0.0 | 0.00 | 0.00 | 0.00 | 89 | 1020.0 | |
| 20260509005115 | 43 | 52 | 0.0 | 1.0 | 0.00 | 0.00 | 0.00 | 89 | 1020.0 |
| 20260509004815 | 43 | 52 | 1.0 | 1.0 | 0.00 | 0.00 | 0.00 | 89 | 1020.0 |
| 20260509004515 | 43 | 52 | 0.0 | 1.0 | 0.00 | 0.00 | 0.00 | 89 | 1020.0 |
| 20260509004215 | 43 | 52 | 0.0 | 1.0 | 0.00 | 0.00 | 0.00 | 89 | 1020.1 |
| 20260509003915 | 43 | 52 | 1.0 | 1.0 | 0.00 | 0.00 | 0.00 | 89 | 1020.1 |
| 20260509003618 | 43 | 52 | 1.0 | 2.0 | 0.00 | 0.00 | 0.00 | 89 | 1020.1 |
| 20260509003315 | 43 | 52 | 1.0 | 2.0 | 0.00 | 0.00 | 0.00 | 89 | 1020.1 |
| 20260509003015 | 43 | 52 | 1.0 | 2.0 | 0.00 | 0.00 | 0.00 | 89 | 1020.1 |
| 20260509002715 | 44 | 52 | 1.0 | 2.0 | 0.00 | 0.00 | 0.00 | 89 | 1020.1 |
| 20260509002415 | 44 | 52 | 1.0 | 2.0 | 0.00 | 0.00 | 0.00 | 89 | 1020.1 |
| 20260509002115 | 44 | 52 | 0.0 | 2.0 | 0.00 | 0.00 | 0.00 | 89 | 1020.1 |
| 20260509001815 | 44 | 52 | 0.0 | 1.0 | 0.00 | 0.00 | 0.00 | 89 | 1020.2 |
| 20260509001515 | 44 | 0.0 | 0.0 | 0.00 | 0.00 | 0.00 | 89 | 1020.2 | |
| 20260509001215 | 44 | 0.0 | 0.0 | 0.00 | 0.00 | 0.00 | 89 | 1020.2 | |
| 20260509000918 | 44 | 0.0 | 0.0 | 0.00 | 0.00 | 0.00 | 89 | 1020.2 | |
| 20260509000615 | 44 | 52 | 0.0 | 1.0 | 0.00 | 0.00 | 0.00 | 89 | 1020.3 |
| 20260509000315 | 45 | 52 | 0.0 | 1.0 | 0.00 | 0.00 | 0.00 | 89 | 1020.2 |
| 20260509000015 | 45 | 52 | 0.0 | 1.0 | 0.00 | 0.00 | 0.00 | 89 | 1020.2 |
| 20260508235755 | 45 | 0.0 | 0.0 | 0.00 | 0.00 | 0.00 | 89 | 1020.2 | |
| 20260508235415 | 45 | 52 | 1.0 | 1.0 | 0.00 | 0.00 | 0.00 | 89 | 1020.2 |
| 20260508235115 | 45 | 52 | 1.0 | 2.0 | 0.00 | 0.00 | 0.00 | 89 | 1020.2 |
| 20260508234858 | 45 | 52 | 1.0 | 2.0 | 0.00 | 0.00 | 0.00 | 89 | 1020.2 |
| 20260508234556 | 45 | 52 | 1.0 | 2.0 | 0.00 | 0.00 | 0.00 | 89 | 1020.2 |
| 20260508234215 | 45 | 52 | 1.0 | 2.0 | 0.00 | 0.00 | 0.00 | 89 | 1020.2 |
| 20260508233915 | 45 | 57 | 1.0 | 2.0 | 0.00 | 0.00 | 0.00 | 89 | 1020.2 |
| 20260508233615 | 46 | 78 | 1.0 | 2.0 | 0.00 | 0.00 | 0.00 | 89 | 1020.2 |
| 20260508233315 | 46 | 78 | 1.0 | 2.0 | 0.00 | 0.00 | 0.00 | 89 | 1020.2 |
| 20260508233015 | 46 | 78 | 1.0 | 2.0 | 0.00 | 0.00 | 0.00 | 89 | 1020.2 |
| 20260508232715 | 46 | 78 | 1.0 | 3.0 | 0.00 | 0.00 | 0.00 | 89 | 1020.2 |
| 20260508232415 | 46 | 78 | 0.0 | 2.0 | 0.00 | 0.00 | 0.00 | 89 | 1020.2 |
| 20260508232121 | 47 | 78 | 0.0 | 2.0 | 0.00 | 0.00 | 0.00 | 89 | 1020.3 |
| 20260508231815 | 47 | 78 | 1.0 | 1.0 | 0.00 | 0.00 | 0.00 | 89 | 1020.3 |
| 20260508231515 | 47 | 78 | 0.0 | 1.0 | 0.00 | 0.00 | 0.00 | 89 | 1020.3 |
| 20260508231215 | 47 | 78 | 0.0 | 1.0 | 0.00 | 0.00 | 0.00 | 89 | 1020.3 |
| 20260508230915 | 47 | 78 | 1.0 | 1.0 | 0.00 | 0.00 | 0.00 | 89 | 1020.3 |
| 20260508230615 | 47 | 78 | 0.0 | 1.0 | 0.00 | 0.00 | 0.00 | 89 | 1020.3 |
| 20260508230315 | 47 | 0.0 | 0.0 | 0.00 | 0.00 | 0.00 | 89 | 1020.3 | |
| 20260508230015 | 47 | 0.0 | 0.0 | 0.00 | 0.00 | 0.00 | 89 | 1020.3 | |
| 20260508225715 | 47 | 0.0 | 0.0 | 0.00 | 0.00 | 0.00 | 89 | 1020.3 | |
| 20260508225415 | 47 | 0.0 | 0.0 | 0.00 | 0.00 | 0.00 | 89 | 1020.3 | |
| 20260508225115 | 47 | 0.0 | 0.0 | 0.00 | 0.00 | 0.00 | 89 | 1020.3 | |
| 20260508224818 | 48 | 0.0 | 0.0 | 0.00 | 0.00 | 0.00 | 89 | 1020.3 | |
| 20260508224515 | 48 | 0.0 | 0.0 | 0.00 | 0.00 | 0.00 | 89 | 1020.3 | |
| 20260508224256 | 48 | 0.0 | 0.0 | 0.00 | 0.00 | 0.00 | 89 | 1020.3 | |
| 20260508223915 | 48 | 0.0 | 0.0 | 0.00 | 0.00 | 0.00 | 89 | 1020.3 | |
| 20260508223658 | 48 | 0.0 | 0.0 | 0.00 | 0.00 | 0.00 | 89 | 1020.3 | |
| 20260508223315 | 48 | 0.0 | 0.0 | 0.00 | 0.00 | 0.00 | 88 | 1020.3 | |
| 20260508223015 | 48 | 0.0 | 0.0 | 0.00 | 0.00 | 0.00 | 88 | 1020.3 | |
| 20260508222715 | 48 | 78 | 0.0 | 2.0 | 0.00 | 0.00 | 0.00 | 88 | 1020.3 |
| 20260508222535 | 48 | 78 | 1.0 | 2.0 | 0.00 | 0.00 | 0.00 | 89 | 1020.4 |
| 20260508222115 | 49 | 78 | 1.0 | 2.0 | 0.00 | 0.00 | 0.00 | 89 | 1020.4 |
| 20260508221815 | 49 | 78 | 1.0 | 2.0 | 0.00 | 0.00 | 0.00 | 89 | 1020.4 |
| 20260508221515 | 49 | 78 | 1.0 | 2.0 | 0.00 | 0.00 | 0.00 | 89 | 1020.4 |
| 20260508221218 | 49 | 78 | 1.0 | 2.0 | 0.00 | 0.00 | 0.00 | 89 | 1020.4 |
| 20260508220915 | 49 | 78 | 1.0 | 2.0 | 0.00 | 0.00 | 0.00 | 88 | 1020.4 |
| 20260508220615 | 49 | 78 | 1.0 | 2.0 | 0.00 | 0.00 | 0.00 | 88 | 1020.4 |
| 20260508220435 | 49 | 78 | 0.0 | 1.0 | 0.00 | 0.00 | 0.00 | 88 | 1020.4 |
| 20260508220018 | 49 | 0.0 | 0.0 | 0.00 | 0.00 | 0.00 | 88 | 1020.4 | |
| 20260508215731 | 49 | 78 | 0.0 | 1.0 | 0.00 | 0.00 | 0.00 | 88 | 1020.4 |
| 20260508215415 | 49 | 0.0 | 0.0 | 0.00 | 0.00 | 0.00 | 88 | 1020.4 | |
| 20260508215156 | 49 | 0.0 | 0.0 | 0.00 | 0.00 | 0.00 | 88 | 1020.4 | |
| 20260508214815 | 49 | 0.0 | 0.0 | 0.00 | 0.00 | 0.00 | 88 | 1020.4 | |
| 20260508214555 | 49 | 0.0 | 0.0 | 0.00 | 0.00 | 0.00 | 88 | 1020.3 | |
| 20260508214215 | 49 | 0.0 | 0.0 | 0.00 | 0.00 | 0.00 | 88 | 1020.3 | |
| 20260508213918 | 49 | 0.0 | 0.0 | 0.00 | 0.00 | 0.00 | 88 | 1020.4 | |
| 20260508213630 | 49 | 0.0 | 0.0 | 0.00 | 0.01 | 0.00 | 88 | 1020.4 | |
| 20260508213315 | 49 | 0.0 | 0.0 | 0.00 | 0.01 | 0.00 | 88 | 1020.3 | |
| 20260508213015 | 49 | 78 | 0.0 | 1.0 | 0.00 | 0.01 | 0.00 | 88 | 1020.4 |
| 20260508212715 | 49 | 78 | 1.0 | 1.0 | 0.00 | 0.01 | 0.00 | 88 | 1020.4 |
| 20260508212455 | 49 | 78 | 0.0 | 1.0 | 0.00 | 0.01 | 0.00 | 88 | 1020.4 |
| 20260508212115 | 49 | 78 | 0.0 | 1.0 | 0.00 | 0.01 | 0.00 | 88 | 1020.3 |
| 20260508211818 | 49 | 78 | 0.0 | 1.0 | 0.00 | 0.01 | 0.00 | 88 | 1020.3 |
| 20260508211515 | 49 | 78 | 0.0 | 1.0 | 0.00 | 0.01 | 0.00 | 88 | 1020.3 |
| 20260508211256 | 50 | 78 | 1.0 | 2.0 | 0.00 | 0.01 | 0.00 | 88 | 1020.3 |
| 20260508210915 | 50 | 78 | 1.0 | 2.0 | 0.00 | 0.01 | 0.00 | 87 | 1020.3 |
| 20260508210615 | 50 | 78 | 0.0 | 1.0 | 0.00 | 0.01 | 0.00 | 87 | 1020.2 |
| 20260508210315 | 50 | 78 | 0.0 | 1.0 | 0.00 | 0.01 | 0.00 | 87 | 1020.3 |
| 20260508210015 | 50 | 78 | 0.0 | 1.0 | 0.00 | 0.01 | 0.00 | 87 | 1020.3 |
| 20260508205715 | 50 | 78 | 0.0 | 1.0 | 0.00 | 0.01 | 0.00 | 87 | 1020.3 |
| 20260508205419 | 50 | 78 | 0.0 | 1.0 | 0.00 | 0.01 | 0.00 | 87 | 1020.3 |
| 20260508205115 | 50 | 0.0 | 0.0 | 0.00 | 0.01 | 0.00 | 87 | 1020.2 | |
| 20260508204815 | 51 | 0.0 | 0.0 | 0.00 | 0.01 | 0.00 | 87 | 1020.3 | |
| 20260508204515 | 51 | 0.0 | 0.0 | 0.00 | 0.02 | 0.00 | 86 | 1020.2 | |
| 20260508204217 | 51 | 0.0 | 0.0 | 0.00 | 0.02 | 0.00 | 86 | 1020.2 | |
| 20260508203918 | 51 | 0.0 | 0.0 | 0.00 | 0.02 | 0.00 | 86 | 1020.2 | |
| 20260508203615 | 51 | 0.0 | 0.0 | 0.00 | 0.02 | 0.00 | 86 | 1020.2 | |
| 20260508203315 | 51 | 0.0 | 0.0 | 0.00 | 0.02 | 0.00 | 85 | 1020.2 | |
| 20260508203015 | 51 | 0.0 | 0.0 | 0.00 | 0.02 | 0.00 | 85 | 1020.2 | |
| 20260508202715 | 51 | 78 | 0.0 | 1.0 | 0.00 | 0.02 | 0.00 | 85 | 1020.3 |
| 20260508202415 | 51 | 78 | 0.0 | 1.0 | 0.00 | 0.02 | 0.00 | 85 | 1020.2 |
| 20260508202156 | 51 | 0.0 | 0.0 | 0.00 | 0.02 | 0.00 | 85 | 1020.3 | |
| 20260508201819 | 51 | 0.0 | 0.0 | 0.00 | 0.02 | 0.00 | 85 | 1020.2 | |
| 20260508201515 | 51 | 0.0 | 0.0 | 0.00 | 0.02 | 0.00 | 84 | 1020.2 | |
| 20260508201215 | 51 | 0.0 | 0.0 | 0.00 | 0.02 | 0.00 | 84 | 1020.2 | |
| 20260508200915 | 51 | 0.0 | 0.0 | 0.00 | 0.02 | 0.00 | 84 | 1020.3 | |
| 20260508200616 | 51 | 0.0 | 0.0 | 0.00 | 0.02 | 0.00 | 84 | 1020.3 | |
| 20260508200515 | 51 | 0.0 | 0.0 | 0.00 | 0.02 | 0.00 | 84 | 1020.2 | |
| 20260508200056 | 51 | 78 | 0.0 | 2.0 | 0.00 | 0.02 | 0.00 | 83 | 1020.2 |
| 20260508195715 | 51 | 78 | 2.0 | 3.0 | 0.00 | 0.02 | 0.00 | 83 | 1020.1 |
| 20260508195415 | 51 | 78 | 1.0 | 2.0 | 0.00 | 0.02 | 0.00 | 83 | 1020.2 |
| 20260508195115 | 51 | 78 | 1.0 | 2.0 | 0.00 | 0.02 | 0.00 | 83 | 1020.2 |
| 20260508194815 | 51 | 78 | 1.0 | 2.0 | 0.00 | 0.02 | 0.00 | 83 | 1020.1 |
| 20260508194556 | 51 | 78 | 1.0 | 2.0 | 0.00 | 0.02 | 0.00 | 83 | 1020.2 |
| 20260508194215 | 51 | 78 | 1.0 | 2.0 | 0.00 | 0.02 | 0.00 | 84 | 1020.1 |
| 20260508193955 | 51 | 78 | 1.0 | 2.0 | 0.00 | 0.02 | 0.00 | 84 | 1020.2 |
| 20260508193656 | 51 | 78 | 0.0 | 1.0 | 0.00 | 0.02 | 0.00 | 84 | 1020.2 |
| 20260508193355 | 51 | 78 | 0.0 | 1.0 | 0.00 | 0.02 | 0.00 | 84 | 1020.1 |
| 20260508193018 | 51 | 78 | 1.0 | 1.0 | 0.00 | 0.02 | 0.00 | 84 | 1020.1 |
| 20260508192715 | 51 | 78 | 1.0 | 1.0 | 0.00 | 0.02 | 0.00 | 84 | 1020.1 |
| 20260508192415 | 51 | 78 | 1.0 | 2.0 | 0.00 | 0.02 | 0.00 | 84 | 1020.1 |
| 20260508192119 | 52 | 78 | 1.0 | 1.0 | 0.00 | 0.02 | 0.00 | 84 | 1020.0 |
| 20260508191815 | 52 | 78 | 1.0 | 1.0 | 0.00 | 0.02 | 0.00 | 84 | 1020.0 |
| 20260508191515 | 51 | 0.0 | 0.0 | 0.00 | 0.02 | 0.00 | 84 | 1020.0 | |
| 20260508191215 | 52 | 0.0 | 0.0 | 0.00 | 0.02 | 0.00 | 84 | 1020.0 | |
| 20260508190915 | 52 | 0.0 | 0.0 | 0.00 | 0.02 | 0.00 | 84 | 1020.0 | |
| 20260508190618 | 52 | 0.0 | 0.0 | 0.00 | 0.02 | 0.00 | 83 | 1020.0 | |
| 20260508190436 | 52 | 0.0 | 0.0 | 0.00 | 0.02 | 0.00 | 83 | 1020.0 | |
| 20260508190015 | 52 | 0.0 | 0.0 | 0.00 | 0.02 | 0.00 | 82 | 1019.9 | |
| 20260508185718 | 52 | 0.0 | 0.0 | 0.00 | 0.02 | 0.00 | 82 | 1020.0 | |
| 20260508185415 | 52 | 0.0 | 0.0 | 0.00 | 0.02 | 0.00 | 82 | 1019.9 | |
| 20260508185115 | 52 | 0.0 | 0.0 | 0.00 | 0.02 | 0.00 | 81 | 1019.9 | |
| 20260508184815 | 52 | 0.0 | 0.0 | 0.00 | 0.02 | 0.00 | 81 | 1019.9 | |
| 20260508184515 | 52 | 0.0 | 0.0 | 0.00 | 0.02 | 0.00 | 80 | 1019.9 | |
| 20260508184255 | 52 | 0.0 | 0.0 | 0.00 | 0.02 | 0.00 | 80 | 1019.8 | |
| 20260508183916 | 53 | 0.0 | 0.0 | 0.00 | 0.02 | 0.00 | 80 | 1019.8 | |
| 20260508183618 | 53 | 0.0 | 0.0 | 0.00 | 0.02 | 0.00 | 80 | 1019.8 | |
| 20260508183315 | 53 | 0.0 | 0.0 | 0.00 | 0.02 | 0.00 | 80 | 1019.7 | |
| 20260508183015 | 53 | 0.0 | 0.0 | 0.00 | 0.02 | 0.00 | 80 | 1019.7 | |
| 20260508182715 | 53 | 0.0 | 0.0 | 0.00 | 0.02 | 0.00 | 80 | 1019.7 | |
| 20260508182459 | 53 | 0.0 | 0.0 | 0.00 | 0.02 | 0.00 | 80 | 1019.6 | |
| 20260508182115 | 53 | 0.0 | 0.0 | 0.00 | 0.02 | 0.00 | 79 | 1019.6 | |
| 20260508181815 | 53 | 0.0 | 0.0 | 0.00 | 0.02 | 0.00 | 79 | 1019.6 | |
| 20260508181516 | 53 | 0.0 | 0.0 | 0.00 | 0.02 | 0.00 | 78 | 1019.6 | |
| 20260508181215 | 53 | 0.0 | 0.0 | 0.00 | 0.02 | 0.00 | 78 | 1019.5 | |
| 20260508180958 | 53 | 78 | 0.0 | 1.0 | 0.00 | 0.02 | 0.00 | 78 | 1019.6 |
| 20260508180655 | 53 | 78 | 0.0 | 1.0 | 0.00 | 0.02 | 0.00 | 78 | 1019.5 |
| 20260508180315 | 54 | 78 | 0.0 | 1.0 | 0.00 | 0.02 | 0.00 | 77 | 1019.6 |
| 20260508180055 | 54 | 78 | 0.0 | 1.0 | 0.00 | 0.02 | 0.00 | 77 | 1019.6 |
| 20260508175715 | 54 | 78 | 0.0 | 2.0 | 0.00 | 0.02 | 0.00 | 77 | 1019.5 |
| 20260508175456 | 54 | 78 | 1.0 | 2.0 | 0.00 | 0.02 | 0.00 | 76 | 1019.6 |
| 20260508175118 | 54 | 78 | 1.0 | 2.0 | 0.00 | 0.02 | 0.00 | 76 | 1019.5 |
| 20260508174816 | 54 | 78 | 0.0 | 2.0 | 0.00 | 0.02 | 0.00 | 76 | 1019.5 |
| 20260508174515 | 54 | 78 | 1.0 | 2.0 | 0.00 | 0.02 | 0.00 | 76 | 1019.5 |
| 20260508174216 | 54 | 76 | 2.0 | 4.0 | 0.00 | 0.02 | 0.00 | 76 | 1019.5 |
| 20260508173915 | 54 | 25 | 1.0 | 4.0 | 0.00 | 0.02 | 0.00 | 76 | 1019.5 |
| 20260508173616 | 54 | 13 | 1.0 | 2.0 | 0.00 | 0.02 | 0.00 | 76 | 1019.5 |
| 20260508173315 | 54 | 10 | 0.0 | 2.0 | 0.00 | 0.02 | 0.00 | 75 | 1019.4 |
| 20260508173016 | 54 | 4 | 1.0 | 4.0 | 0.00 | 0.02 | 0.00 | 75 | 1019.4 |
| 20260508172715 | 54 | 5 | 2.0 | 7.0 | 0.00 | 0.02 | 0.00 | 75 | 1019.4 |
| 20260508172415 | 54 | 9 | 0.0 | 2.0 | 0.00 | 0.02 | 0.00 | 75 | 1019.4 |
| 20260508172115 | 54 | 9 | 1.0 | 2.0 | 0.00 | 0.02 | 0.00 | 74 | 1019.3 |
| 20260508171858 | 54 | 9 | 1.0 | 4.0 | 0.00 | 0.02 | 0.00 | 75 | 1019.2 |
| 20260508171515 | 54 | 17 | 2.0 | 7.0 | 0.00 | 0.02 | 0.00 | 75 | 1019.3 |
| 20260508171215 | 54 | 25 | 2.0 | 4.0 | 0.00 | 0.02 | 0.00 | 74 | 1019.3 |
| 20260508170915 | 54 | 17 | 1.0 | 4.0 | 0.00 | 0.02 | 0.00 | 74 | 1019.2 |
| 20260508170618 | 54 | 22 | 1.0 | 4.0 | 0.00 | 0.02 | 0.00 | 74 | 1019.2 |
| 20260508170318 | 54 | 20 | 1.0 | 5.0 | 0.00 | 0.02 | 0.00 | 74 | 1019.3 |
| 20260508170055 | 54 | 17 | 1.0 | 2.0 | 0.00 | 0.02 | 0.00 | 74 | 1019.2 |
| 20260508165715 | 54 | 6 | 2.0 | 5.0 | 0.00 | 0.02 | 0.00 | 74 | 1019.2 |
| 20260508165415 | 54 | 359 | 2.0 | 4.0 | 0.00 | 0.02 | 0.00 | 74 | 1019.2 |
| 20260508165155 | 54 | 6 | 2.0 | 6.0 | 0.00 | 0.02 | 0.00 | 74 | 1019.2 |
| 20260508164815 | 54 | 13 | 3.0 | 6.0 | 0.00 | 0.02 | 0.00 | 74 | 1019.2 |
| 20260508164515 | 54 | 15 | 2.0 | 6.0 | 0.00 | 0.02 | 0.00 | 73 | 1019.3 |
| 20260508164215 | 55 | 4 | 3.0 | 5.0 | 0.00 | 0.02 | 0.00 | 73 | 1019.3 |
| 20260508163916 | 55 | 4 | 3.0 | 7.0 | 0.00 | 0.02 | 0.00 | 73 | 1019.3 |
| 20260508163655 | 55 | 2 | 3.0 | 6.0 | 0.00 | 0.02 | 0.00 | 73 | 1019.3 |
| 20260508163318 | 55 | 13 | 2.0 | 5.0 | 0.00 | 0.02 | 0.00 | 72 | 1019.3 |
| 20260508163015 | 55 | 17 | 3.0 | 6.0 | 0.00 | 0.02 | 0.00 | 73 | 1019.3 |
| 20260508162715 | 55 | 22 | 2.0 | 5.0 | 0.00 | 0.02 | 0.00 | 73 | 1019.3 |
| 20260508162415 | 55 | 9 | 3.0 | 6.0 | 0.00 | 0.02 | 0.00 | 72 | 1019.3 |
| 20260508162118 | 55 | 11 | 3.0 | 6.0 | 0.00 | 0.02 | 0.00 | 71 | 1019.3 |
| 20260508161815 | 55 | 13 | 2.0 | 4.0 | 0.00 | 0.02 | 0.00 | 72 | 1019.2 |
| 20260508161555 | 55 | 4 | 2.0 | 6.0 | 0.00 | 0.02 | 0.00 | 71 | 1019.2 |
| 20260508161215 | 55 | 24 | 2.0 | 5.0 | 0.00 | 0.02 | 0.00 | 71 | 1019.2 |
| 20260508160918 | 55 | 11 | 0.0 | 2.0 | 0.00 | 0.02 | 0.00 | 71 | 1019.3 |
| 20260508160700 | 55 | 12 | 2.0 | 6.0 | 0.00 | 0.02 | 0.00 | 71 | 1019.2 |
| 20260508160315 | 55 | 20 | 1.0 | 4.0 | 0.00 | 0.02 | 0.00 | 72 | 1019.2 |
| 20260508160019 | 55 | 11 | 1.0 | 4.0 | 0.00 | 0.02 | 0.00 | 72 | 1019.1 |
| 20260508155755 | 55 | 7 | 2.0 | 5.0 | 0.00 | 0.02 | 0.00 | 72 | 1019.1 |
| 20260508155415 | 55 | 15 | 1.0 | 3.0 | 0.00 | 0.02 | 0.00 | 71 | 1019.1 |
| 20260508155118 | 55 | 21 | 0.0 | 1.0 | 0.00 | 0.02 | 0.00 | 71 | 1019.1 |
| 20260508154815 | 55 | 21 | 0.0 | 2.0 | 0.00 | 0.02 | 0.00 | 70 | 1019.2 |
| 20260508154515 | 55 | 18 | 2.0 | 5.0 | 0.00 | 0.02 | 0.00 | 71 | 1019.2 |
| 20260508154255 | 55 | 18 | 1.0 | 4.0 | 0.00 | 0.02 | 0.00 | 71 | 1019.2 |
| 20260508153915 | 55 | 6 | 2.0 | 6.0 | 0.00 | 0.02 | 0.00 | 70 | 1019.2 |
| 20260508153616 | 55 | 20 | 2.0 | 5.0 | 0.00 | 0.02 | 0.00 | 70 | 1019.2 |
| 20260508153315 | 55 | 13 | 3.0 | 5.0 | 0.00 | 0.02 | 0.00 | 70 | 1019.2 |
| 20260508153016 | 55 | 24 | 2.0 | 6.0 | 0.00 | 0.02 | 0.00 | 71 | 1019.2 |
| 20260508152716 | 55 | 40 | 2.0 | 4.0 | 0.00 | 0.02 | 0.00 | 71 | 1019.2 |
| 20260508152416 | 55 | 17 | 1.0 | 4.0 | 0.00 | 0.02 | 0.00 | 71 | 1019.2 |
| 20260508152119 | 55 | 36 | 1.0 | 5.0 | 0.00 | 0.02 | 0.00 | 71 | 1019.2 |
| 20260508151815 | 55 | 31 | 1.0 | 3.0 | 0.00 | 0.02 | 0.00 | 71 | 1019.2 |
| 20260508151515 | 55 | 24 | 2.0 | 4.0 | 0.00 | 0.03 | 0.00 | 72 | 1019.2 |
| 20260508151255 | 55 | 16 | 0.0 | 2.0 | 0.00 | 0.03 | 0.00 | 71 | 1019.3 |
| 20260508150939 | 55 | 16 | 2.0 | 4.0 | 0.00 | 0.03 | 0.00 | 71 | 1019.3 |
| 20260508150315 | 55 | 16 | 1.0 | 2.0 | 0.00 | 0.03 | 0.00 | 71 | 1019.3 |
| 20260508150015 | 55 | 13 | 1.0 | 5.0 | 0.00 | 0.03 | 0.00 | 71 | 1019.3 |
| 20260508145715 | 55 | 15 | 2.0 | 4.0 | 0.00 | 0.03 | 0.00 | 70 | 1019.3 |
| 20260508145416 | 55 | 16 | 2.0 | 4.0 | 0.00 | 0.03 | 0.00 | 71 | 1019.3 |
| 20260508145115 | 55 | 7 | 1.0 | 4.0 | 0.00 | 0.03 | 0.00 | 71 | 1019.3 |
| 20260508144815 | 55 | 9 | 2.0 | 5.0 | 0.00 | 0.03 | 0.00 | 71 | 1019.3 |
| 20260508144515 | 55 | 13 | 2.0 | 4.0 | 0.00 | 0.03 | 0.00 | 70 | 1019.3 |
| 20260508144216 | 55 | 27 | 3.0 | 6.0 | 0.00 | 0.03 | 0.00 | 70 | 1019.4 |
| 20260508143916 | 55 | 35 | 2.0 | 5.0 | 0.00 | 0.03 | 0.00 | 70 | 1019.3 |
| 20260508143615 | 55 | 45 | 3.0 | 6.0 | 0.00 | 0.03 | 0.00 | 71 | 1019.3 |
| 20260508143319 | 55 | 33 | 2.0 | 5.0 | 0.00 | 0.03 | 0.00 | 73 | 1019.2 |
| 20260508143015 | 55 | 29 | 1.0 | 4.0 | 0.00 | 0.04 | 0.00 | 73 | 1019.3 |
| 20260508142716 | 55 | 34 | 2.0 | 4.0 | 0.00 | 0.04 | 0.00 | 72 | 1019.2 |
| 20260508142415 | 55 | 39 | 3.0 | 7.0 | 0.00 | 0.04 | 0.00 | 71 | 1019.3 |
| 20260508142118 | 55 | 36 | 3.0 | 7.0 | 0.00 | 0.04 | 0.00 | 71 | 1019.3 |
| 20260508141816 | 55 | 40 | 4.0 | 8.0 | 0.00 | 0.04 | 0.00 | 71 | 1019.3 |
| 20260508141515 | 55 | 35 | 3.0 | 8.0 | 0.00 | 0.04 | 0.00 | 72 | 1019.3 |
| 20260508141215 | 55 | 36 | 3.0 | 7.0 | 0.00 | 0.04 | 0.00 | 71 | 1019.3 |
| 20260508140915 | 55 | 38 | 5.0 | 10.0 | 0.00 | 0.04 | 0.00 | 71 | 1019.3 |
| 20260508140615 | 55 | 34 | 4.0 | 8.0 | 0.00 | 0.04 | 0.00 | 70 | 1019.3 |
| 20260508140315 | 56 | 38 | 4.0 | 9.0 | 0.00 | 0.04 | 0.00 | 72 | 1019.4 |
| 20260508140016 | 56 | 42 | 2.0 | 7.0 | 0.00 | 0.05 | 0.00 | 70 | 1019.4 |
| 20260508135835 | 56 | 39 | 4.0 | 8.0 | 0.00 | 0.05 | 0.00 | 70 | 1019.3 |